Raton, NM

4:40 PM MST on December 02, 2016 (GMT -0700)
Raton Municipal-Crews

Weather History for KRTN - September, 2013

Change the Weather History Date:

Friday, September 6, 2013

  Actual Average (KTAD) Record (KTAD)
Temperature  
Mean Temperature 70 °F 68 °F  
Max Temperature 88 °F 83 °F 96 °F (1959)
Min Temperature 52 °F 53 °F 41 °F (2008)
Degree Days  
Heating Degree Days 0 1  
Month to date heating degree days 6  
Since 1 July heating degree days 16  
Cooling Degree Days 4 4  
Month to date cooling degree days 27  
Growing Degree Days 20 (Base 50)    
Moisture  
Dew Point 40 °F    
Average Humidity 38    
Maximum Humidity 74    
Minimum Humidity 15    
Precipitation  
Precipitation 0.00 in 0.04 in 0.58 in (1993)
Sea Level Pressure  
Sea Level Pressure 30.03 in    
Wind  
Wind Speed 7 mph (SSE)    
Max Wind Speed 15 mph    
Max Gust Speed 23 mph    
Visibility 10 miles    
Events      
T = Trace of Precipitation, MM = Missing Value Source: NWS Daily Summary

Daily Weather History Graph

Daily Weather History Graph

Search for Another Location

Airport or City:

Trip Planner

Search our weather history database for the weather conditions in past years. The results will help you decide how hot, cold, wet, or windy it might be!

Date:

Astronomy

Sep. 06, 2013 Rise Set
Actual Time 6:33 AM MDT 7:18 PM MDT
Civil Twilight 6:07 AM MDT 7:44 PM MDT
Nautical Twilight 5:36 AM MDT 8:15 PM MDT
Astronomical Twilight 5:04 AM MDT 8:47 PM MDT
Moon 7:44 AM MDT (9/6) 7:48 PM MDT (9/6)
Length of Visible Light 13h 37m
Length of Day
12h 45m
New Moon, 2% of the Moon is Illuminated
Sep 6
New Moon
Sep 12
First Quarter
Sep 19
Full
Sep 26
Last Quarter
Oct 4
New

Hourly Weather History & Observations

Time (MDT) Temp. Dew Point Humidity Pressure Visibility Wind Dir Wind Speed Gust Speed Precip Events Conditions
12:53 AM 60.1 °F 42.1 °F 51% 30.06 in 10.0 mi NNW 5.8 mph - N/A   Clear
1:53 AM 55.9 °F 42.1 °F 60% 30.08 in 10.0 mi ENE 4.6 mph - N/A   Clear
2:53 AM 57.0 °F 42.1 °F 57% 30.06 in 10.0 mi North 4.6 mph - N/A   Clear
3:53 AM 55.9 °F 41.0 °F 57% 30.06 in 10.0 mi NNW 5.8 mph - N/A   Clear
4:53 AM 54.0 °F 41.0 °F 62% 30.07 in 10.0 mi North 6.9 mph - N/A   Clear
5:53 AM 52.0 °F 44.1 °F 74% 30.08 in 10.0 mi ENE 5.8 mph - N/A   Clear
6:53 AM 53.1 °F 41.0 °F 64% 30.09 in 10.0 mi North 6.9 mph - N/A   Clear
7:53 AM 57.0 °F 45.0 °F 64% 30.12 in 10.0 mi East 3.5 mph - N/A   Clear
8:53 AM 66.0 °F 46.9 °F 50% 30.09 in 10.0 mi NE 5.8 mph - N/A   Clear
9:53 AM 73.0 °F 44.1 °F 35% 30.07 in 10.0 mi ESE 3.5 mph - N/A   Clear
10:53 AM 78.1 °F 39.9 °F 25% 30.05 in 10.0 mi SE 4.6 mph - N/A   Clear
11:53 AM 82.0 °F 39.9 °F 22% 30.04 in 10.0 mi South 8.1 mph - N/A   Clear
12:53 PM 84.0 °F 39.0 °F 20% 30.02 in 10.0 mi South 13.8 mph 18.4 mph N/A   Clear
1:53 PM 86.0 °F 36.0 °F 17% 30.01 in 10.0 mi South 8.1 mph - N/A   Clear
2:53 PM 87.1 °F 34.0 °F 15% 29.98 in 10.0 mi South 8.1 mph 18.4 mph N/A   Clear
3:53 PM 87.1 °F 36.0 °F 16% 29.96 in 10.0 mi SSE 13.8 mph 19.6 mph N/A   Clear
4:53 PM 86.0 °F 37.0 °F 18% 29.96 in 10.0 mi South 10.4 mph 19.6 mph N/A   Clear
5:53 PM 84.0 °F 37.0 °F 19% 29.96 in 10.0 mi South 15.0 mph 23.0 mph N/A   Clear
6:53 PM 80.1 °F 37.0 °F 21% 29.97 in 10.0 mi South 11.5 mph - N/A   Clear
7:53 PM 73.0 °F 37.9 °F 28% 29.99 in 10.0 mi South 8.1 mph - N/A   Clear
8:53 PM 72.0 °F 37.9 °F 29% 29.99 in 10.0 mi SW 8.1 mph - N/A   Clear
9:53 PM 68.0 °F 39.0 °F 35% 30.00 in 10.0 mi West 3.5 mph - N/A   Clear
10:53 PM 68.0 °F 39.0 °F 35% 30.00 in 10.0 mi WSW 3.5 mph - N/A   Clear
11:53 PM 64.9 °F 39.9 °F 40% 30.00 in 10.0 mi Calm Calm - N/A   Clear